TimeMDT,TemperatureF,Dew PointF,Humidity,Sea Level PressureIn,VisibilityMPH,Wind Direction,Wind SpeedMPH,Gust SpeedMPH,PrecipitationIn,Events,Conditions,WindDirDegrees,DateUTC
12:04 AM,73.4,46.4,38,29.96,8.0,SSW,16.1,20.7,N/A,,Mostly Cloudy,210,2013-06-19 06:04:00
12:19 AM,73.4,46.4,38,29.96,9.0,SW,13.8,20.7,N/A,,Scattered Clouds,220,2013-06-19 06:19:00
12:53 AM,71.1,48.0,44,29.86,10.0,WSW,9.2,-,N/A,,Clear,240,2013-06-19 06:53:00
1:53 AM,66.9,48.9,52,29.91,10.0,Calm,Calm,-,N/A,,Clear,0,2013-06-19 07:53:00
2:53 AM,64.9,52.0,63,29.90,10.0,NNW,5.8,-,N/A,,Clear,330,2013-06-19 08:53:00
3:53 AM,59.0,54.0,83,29.88,10.0,SE,4.6,-,N/A,,Clear,140,2013-06-19 09:53:00
4:53 AM,57.9,53.1,84,29.87,10.0,Calm,Calm,-,N/A,,Clear,0,2013-06-19 10:53:00
5:53 AM,57.0,53.1,87,29.88,10.0,SE,4.6,-,N/A,,Clear,140,2013-06-19 11:53:00
6:53 AM,64.0,55.0,73,29.86,10.0,SSE,10.4,-,N/A,,Clear,150,2013-06-19 12:53:00
7:53 AM,68.0,57.0,68,29.86,10.0,SSE,15.0,-,N/A,,Clear,150,2013-06-19 13:53:00
8:53 AM,71.1,59.0,66,29.85,10.0,SSE,13.8,-,N/A,,Clear,160,2013-06-19 14:53:00
9:53 AM,75.0,59.0,57,29.83,10.0,SSE,12.7,-,N/A,,Clear,160,2013-06-19 15:53:00
10:53 AM,78.1,59.0,52,29.82,10.0,SSE,17.3,24.2,N/A,,Overcast,160,2013-06-19 16:53:00
11:53 AM,80.1,61.0,52,29.79,10.0,South,20.7,28.8,N/A,,Overcast,170,2013-06-19 17:53:00
12:53 PM,82.0,62.1,51,29.76,10.0,South,21.9,34.5,N/A,,Scattered Clouds,170,2013-06-19 18:53:00
1:53 PM,81.0,62.1,52,29.76,10.0,SSE,26.5,34.5,N/A,,Overcast,160,2013-06-19 19:53:00
2:53 PM,82.9,62.1,49,29.74,10.0,SSE,27.6,36.8,N/A,,Mostly Cloudy,160,2013-06-19 20:53:00
3:53 PM,84.9,61.0,44,29.73,10.0,SSE,27.6,36.8,N/A,,Scattered Clouds,160,2013-06-19 21:53:00
4:53 PM,84.0,61.0,46,29.72,10.0,South,26.5,36.8,N/A,,Scattered Clouds,170,2013-06-19 22:53:00
5:53 PM,84.0,61.0,46,29.71,10.0,SSE,25.3,36.8,N/A,,Scattered Clouds,160,2013-06-19 23:53:00
6:53 PM,82.0,60.1,47,29.70,10.0,SSE,24.2,34.5,N/A,,Clear,160,2013-06-20 00:53:00
7:53 PM,79.0,59.0,50,29.70,10.0,SSE,20.7,27.6,N/A,,Clear,150,2013-06-20 01:53:00
8:53 PM,75.9,60.1,58,29.72,10.0,SE,19.6,-,N/A,,Clear,140,2013-06-20 02:53:00
9:53 PM,73.9,60.1,62,29.74,10.0,SSE,20.7,28.8,N/A,,Clear,150,2013-06-20 03:53:00
10:53 PM,73.0,60.1,64,29.73,10.0,SSE,17.3,27.6,N/A,,Clear,150,2013-06-20 04:53:00
11:53 PM,71.1,60.1,68,29.72,10.0,SSE,24.2,32.2,N/A,,Clear,160,2013-06-20 05:53:00